Location: Unspecified
(0.0000°N, 0.0000°E)
Time: 11:10:33
(UTC+00:00)

Cosmos 2058 - Pass Details

Date: 24 April 2019
Orbit: 561 x 585 km, 82.5° (Epoch: 18 May)

Event Time Altitude Azimuth Distance (km) Brightness Sun altitude
Rises 18:30:52 0° 9° (N) 2,736 6.4 -8.0°
Reaches altitude 10° 18:33:07 10° 16° (NNE) 1,842 5.5 -8.5°
Maximum altitude 18:36:56 39° 86° (E) 840 3.3 -9.4°
Drops below altitude 10° 18:40:45 10° 156° (SSE) 1,852 5.2 -10.4°
Sets 18:43:01 0° 164° (SSE) 2,752 6.1 -10.9°
